Location: Newark
(47.8167°N, 6.1833°E)
Time: 15:55:43
(UTC+00:00)

ISS - Visible Passes

Search period start: 01 October 2020 00:00
Search period end: 11 October 2020 00:00
Orbit: 419 x 421 km, 51.6° (Epoch: 02 October)

Date Brightness Start Highest point End Pass type
(mag) Time Alt. Az. Time Alt. Az. Time Alt. Az.
01 Oct -3.8 19:05:14 10° WNW 19:08:36 74° SSW 19:08:41 74° S visible
02 Oct -3.8 18:17:57 10° WNW 18:21:20 80° NNE 18:23:18 23° ESE visible
02 Oct -1.0 19:55:11 10° W 19:56:17 16° WSW 19:56:17 16° WSW visible
03 Oct -2.5 19:07:38 10° WNW 19:10:43 33° SW 19:10:57 32° SSW visible
04 Oct -3.1 18:20:13 10° WNW 18:23:30 49° SSW 18:25:42 19° SE visible
05 Oct -3.6 17:32:53 10° WNW 17:36:15 73° SSW 17:39:36 10° ESE visible
05 Oct -1.2 19:10:41 10° W 19:12:35 14° SW 19:13:31 13° SSW visible
06 Oct -1.5 18:22:47 10° W 18:25:27 22° SW 18:28:07 10° SSE visible
07 Oct -2.1 17:35:12 10° W 17:38:15 32° SW 17:41:19 10° SSE visible
09 Oct -0.8 17:38:10 10° WSW 17:40:03 14° SW 17:41:54 10° S visible
